Meteo pe oră la 1-e Yuldybaevo

Astăzi, 15 Iunie, Marţi

Timp Temperatura Precipitaţii Vânt Presiune Umiditate
00:00 +19°C° 0 mm 2 m/s 741 mmHg 48%
01:00 +18°C° 0 mm 2 m/s 741 mmHg 47%
02:00 +19°C° 0 mm 1 m/s 741 mmHg 47%
03:00 +19°C° 0 mm 1 m/s 741 mmHg 48%
04:00 +18°C° 0 mm 1 m/s 741 mmHg 49%
05:00 +20°C° 0 mm 1 m/s 741 mmHg 51%
06:00 +22°C° 0 mm 1 m/s 741 mmHg 52%
07:00 +24°C° 0 mm 1 m/s 741 mmHg 53%
08:00 +26°C° 0 mm 2 m/s 741 mmHg 49%
09:00 +27°C° 0 mm 2 m/s 741 mmHg 44%
10:00 +29°C° 0 mm 3 m/s 741 mmHg 40%
11:00 +30°C° 0 mm 3 m/s 741 mmHg 38%
12:00 +30°C° 0 mm 3 m/s 741 mmHg 35%
13:00 +31°C° 0 mm 3 m/s 741 mmHg 33%
14:00 +31°C° 0 mm 3 m/s 740 mmHg 33%
15:00 +31°C° 0 mm 2 m/s 740 mmHg 32%
16:00 +31°C° 0 mm 1 m/s 740 mmHg 32%
17:00 +30°C° 0 mm 1 m/s 740 mmHg 40%
18:00 +28°C° 0 mm 1 m/s 739 mmHg 48%
19:00 +27°C° 0 mm 1 m/s 739 mmHg 56%
20:00 +25°C° 0 mm 1 m/s 739 mmHg 58%
21:00 +23°C° 0 mm 1 m/s 739 mmHg 60%
22:00 +22°C° 0 mm 1 m/s 739 mmHg 61%
23:00 +22°C° 0 mm 1 m/s 739 mmHg 60%

Mâine, 16 Iunie, Miercuri

Timp Temperatura Precipitaţii Vânt Presiune Umiditate
00:00 +21°C° 0 mm 1 m/s 739 mmHg 59%
01:00 +20°C° 0 mm 2 m/s 739 mmHg 58%
02:00 +20°C° 0 mm 2 m/s 739 mmHg 56%
03:00 +20°C° 0 mm 2 m/s 739 mmHg 55%
04:00 +20°C° 0 mm 2 m/s 739 mmHg 53%
05:00 +22°C° 0 mm 1 m/s 739 mmHg 56%
06:00 +23°C° 0 mm 1 m/s 739 mmHg 59%
07:00 +24°C° 0 mm 1 m/s 739 mmHg 62%
08:00 +26°C° 0 mm 2 m/s 739 mmHg 55%
09:00 +28°C° 0 mm 3 m/s 739 mmHg 48%
10:00 +29°C° 0 mm 3 m/s 739 mmHg 41%
11:00 +30°C° 0 mm 3 m/s 739 mmHg 39%
12:00 +31°C° 0 mm 3 m/s 739 mmHg 36%
13:00 +31°C° 0 mm 3 m/s 739 mmHg 34%
14:00 +31°C° 0 mm 3 m/s 738 mmHg 34%
15:00 +32°C° 0 mm 4 m/s 738 mmHg 34%
16:00 +32°C° 0 mm 4 m/s 738 mmHg 34%
17:00 +29°C° 0 mm 3 m/s 738 mmHg 43%
18:00 +27°C° 0 mm 3 m/s 737 mmHg 52%
19:00 +25°C° 0 mm 2 m/s 737 mmHg 61%
20:00 +24°C° 0 mm 2 m/s 737 mmHg 61%
21:00 +21°C° 0 mm 3 m/s 737 mmHg 60%
22:00 +20°C° 0 mm 3 m/s 737 mmHg 60%
23:00 +20°C° 0 mm 2 m/s 736 mmHg 58%

Poimâine, 17 Iunie, Joi

Timp Temperatura Precipitaţii Vânt Presiune Umiditate
00:00 +20°C° 0 mm 2 m/s 736 mmHg 57%
01:00 +21°C° 0 mm 1 m/s 736 mmHg 55%
02:00 +20°C° 0 mm 1 m/s 735 mmHg 60%
03:00 +20°C° 0 mm 1 m/s 735 mmHg 65%
04:00 +19°C° 0 mm 1 m/s 735 mmHg 70%
05:00 +21°C° 0 mm 1 m/s 735 mmHg 66%
06:00 +22°C° 0 mm 1 m/s 735 mmHg 63%
07:00 +24°C° 0 mm 1 m/s 735 mmHg 59%
08:00 +25°C° 0 mm 1 m/s 735 mmHg 55%
09:00 +26°C° 0 mm 2 m/s 735 mmHg 51%
10:00 +28°C° 0 mm 2 m/s 734 mmHg 47%
11:00 +29°C° 0 mm 3 m/s 734 mmHg 47%
12:00 +29°C° 0 mm 3 m/s 734 mmHg 48%
13:00 +30°C° 0 mm 3 m/s 734 mmHg 49%
14:00 +29°C° 0.1 mm 4 m/s 734 mmHg 54%
15:00 +28°C° 0.1 mm 5 m/s 734 mmHg 60%
16:00 +26°C° 0.1 mm 5 m/s 734 mmHg 66%
17:00 +25°C° 0.3 mm 5 m/s 734 mmHg 71%
18:00 +23°C° 0.3 mm 6 m/s 735 mmHg 77%
19:00 +21°C° 0.3 mm 6 m/s 735 mmHg 82%
20:00 +20°C° 0 mm 6 m/s 735 mmHg 81%
21:00 +19°C° 0 mm 5 m/s 736 mmHg 79%
22:00 +17°C° 0 mm 5 m/s 736 mmHg 78%
23:00 +16°C° 0 mm 5 m/s 736 mmHg 76%

18 Iunie, Vineri

Timp Temperatura Precipitaţii Vânt Presiune Umiditate
00:00 +15°C° 0 mm 4 m/s 736 mmHg 75%
01:00 +14°C° 0 mm 4 m/s 737 mmHg 73%
02:00 +12°C° 0 mm 3 m/s 737 mmHg 78%
03:00 +11°C° 0 mm 3 m/s 737 mmHg 83%
04:00 +10°C° 0 mm 2 m/s 738 mmHg 87%
05:00 +12°C° 0 mm 3 m/s 738 mmHg 78%
06:00 +13°C° 0 mm 4 m/s 738 mmHg 69%
07:00 +15°C° 0 mm 4 m/s 739 mmHg 60%
08:00 +17°C° 0 mm 5 m/s 739 mmHg 52%
09:00 +19°C° 0 mm 6 m/s 739 mmHg 44%
10:00 +21°C° 0 mm 6 m/s 739 mmHg 37%
11:00 +21°C° 0 mm 6 m/s 740 mmHg 35%
12:00 +22°C° 0 mm 6 m/s 740 mmHg 34%
13:00 +23°C° 0 mm 6 m/s 740 mmHg 32%
14:00 +23°C° 0 mm 6 m/s 740 mmHg 32%
15:00 +22°C° 0 mm 7 m/s 741 mmHg 33%
16:00 +22°C° 0 mm 7 m/s 741 mmHg 34%
17:00 +21°C° 0 mm 6 m/s 741 mmHg 39%
18:00 +20°C° 0 mm 6 m/s 742 mmHg 45%
19:00 +19°C° 0 mm 6 m/s 742 mmHg 51%
20:00 +16°C° 0 mm 5 m/s 743 mmHg 55%
21:00 +14°C° 0 mm 4 m/s 743 mmHg 59%
22:00 +12°C° 0 mm 3 m/s 744 mmHg 64%
23:00 +12°C° 0 mm 2 m/s 744 mmHg 68%

19 Iunie, Sâmbătă

Timp Temperatura Precipitaţii Vânt Presiune Umiditate
00:00 +10°C° 0 mm 2 m/s 744 mmHg 73%
01:00 +9°C° 0 mm 2 m/s 745 mmHg 77%
02:00 +9°C° 0 mm 2 m/s 745 mmHg 77%
03:00 +9°C° 0 mm 2 m/s 746 mmHg 76%
04:00 +9°C° 0 mm 2 m/s 746 mmHg 75%
05:00 +12°C° 0 mm 2 m/s 746 mmHg 68%
06:00 +14°C° 0 mm 2 m/s 746 mmHg 62%
07:00 +16°C° 0 mm 1 m/s 747 mmHg 55%
08:00 +17°C° 0 mm 2 m/s 747 mmHg 50%
09:00 +19°C° 0 mm 3 m/s 747 mmHg 45%
10:00 +21°C° 0 mm 3 m/s 747 mmHg 39%
11:00 +21°C° 0 mm 4 m/s 746 mmHg 40%
12:00 +22°C° 0 mm 4 m/s 746 mmHg 40%
13:00 +23°C° 0 mm 4 m/s 746 mmHg 41%
14:00 +23°C° 0 mm 5 m/s 746 mmHg 42%
15:00 +23°C° 0 mm 5 m/s 745 mmHg 43%
16:00 +23°C° 0 mm 5 m/s 745 mmHg 45%
17:00 +22°C° 0 mm 4 m/s 745 mmHg 50%
18:00 +22°C° 0 mm 4 m/s 745 mmHg 56%
19:00 +21°C° 0 mm 4 m/s 744 mmHg 61%
20:00 +19°C° 0 mm 3 m/s 744 mmHg 70%
21:00 +17°C° 0 mm 3 m/s 744 mmHg 79%
22:00 +16°C° 0 mm 2 m/s 744 mmHg 87%
23:00 +15°C° 0 mm 2 m/s 743 mmHg 89%

20 Iunie, Duminică

Timp Temperatura Precipitaţii Vânt Presiune Umiditate
00:00 +15°C° 0 mm 2 m/s 743 mmHg 90%
01:00 +15°C° 0 mm 2 m/s 743 mmHg 91%
02:00 +15°C° 0 mm 2 m/s 743 mmHg 92%
03:00 +15°C° 0 mm 2 m/s 742 mmHg 93%
04:00 +15°C° 0 mm 2 m/s 742 mmHg 94%
05:00 +16°C° 0 mm 2 m/s 742 mmHg 91%
06:00 +17°C° 0 mm 3 m/s 742 mmHg 88%
07:00 +19°C° 0 mm 3 m/s 742 mmHg 84%
08:00 +21°C° 0 mm 4 m/s 742 mmHg 76%
09:00 +23°C° 0 mm 5 m/s 742 mmHg 67%
10:00 +26°C° 0 mm 5 m/s 741 mmHg 58%
11:00 +27°C° 0 mm 6 m/s 741 mmHg 54%
12:00 +27°C° 0 mm 6 m/s 741 mmHg 50%
13:00 +28°C° 0 mm 7 m/s 741 mmHg 47%
14:00 +27°C° 0.2 mm 6 m/s 741 mmHg 55%
15:00 +26°C° 0.2 mm 6 m/s 741 mmHg 63%
16:00 +24°C° 0.2 mm 6 m/s 741 mmHg 71%
17:00 +23°C° 0.1 mm 5 m/s 741 mmHg 70%
18:00 +23°C° 0.1 mm 5 m/s 741 mmHg 69%
19:00 +22°C° 0.1 mm 4 m/s 741 mmHg 69%
20:00 +20°C° 0 mm 3 m/s 741 mmHg 76%
21:00 +17°C° 0 mm 2 m/s 741 mmHg 82%
22:00 +15°C° 0 mm 2 m/s 741 mmHg 89%
23:00 +14°C° 0 mm 2 m/s 741 mmHg 89%
Arată mai mult

Formular de consimțământ

Meteoprog și furnizorii noștri de servicii pot stoca și accesa date personale, precum cookies, identificatori de dispozitiv sau alte tehnologii similare pe dispozitivul dumneavoastră și procesa astfel de date pentru a personaliza conținutul și reclamele, dar și pentru a oferi caracteristici de social media și pentru a analiza traficul.

  • Stocarea și/sau accesarea informațiilor pe dispozitivul dumneavoastră

    Cookies, identificatori de dispozitiv sau alte informații pot fi stocate sau accesate pe dispozitiv în scopurile indicate mai sus.

  • Reclame și conținut personalizat, evaluarea reclamelor și a conținutului, informații despre audiențe și dezvoltarea produselor

    Reclamele și conținutul pot fi personalizate pe baza unui profil. Pot fi adăugate date suplimentare pentru a personaliza mai bine reclamele și conținutul. Performanța reclamelor și conținutului poate fi măsurată. Pot fi obținute informații despre utilizatorii care au văzut reclamele și conținutul. Aceste date pot fi utilizate pentru a dezvolta sau îmbunătăți experiența utilizatorilor, sistemele și software-ul.

Dând clic pe ‘Sunt de acord’, permiteți utilizarea cookie-urilor menționate, a identificatorilor de dispozitiv, balizelor web sau altor tehnologii similare. Setările pot fi modificate din browser-ul dispozitivului dumneavoastră.

În anumite scopuri, interesele legitime pot prima asupra consimțământului. Puteți citi mai multe informații în acest sens în Politica privind Confidențialitatea Datelor și Cookie.